RH
26 28 18 22 18 15 9 7 6 7 3 6 17 18 21 32 28 31 29 35 49 67 80 89 94 89 100 100 76 84 22 18 44 96 99 91 19 20 39 42 50 74 100 100 95 98 98
27 29 20 25 18 11 9 7 7 7 3 10 17 19 33 40 52 45 42 39 49 42 83 99 100 95 71 64 72 76 52 24 28 63 100 99 29 18 34 51 50 78 80 93 96 98 94
32 30 24 26 19 12 10 7 7 8 4 10 17 20 29 40 64 72 59 64 51 61 66 54 91 80 69 51 49 54 98 26 27 32 100 100 52 20 24 42 60 58 68 98 96 98 89
36 32 22 28 25 18 11 8 8 9 4 10 15 23 36 37 69 83 86 66 51 69 75 81 59 53 55 57 63 51 100 28 29 26 98 100 94 29 20 33 51 60 62 92 96 96 99
34 33 24 31 27 18 12 9 8 10 5 8 14 26 32 32 51 70 97 43 43 55 75 85 92 89 71 72 66 100 97 37 35 28 100 100 99 49 20 24 32 57 66 70 90 93 98
33 32 32 33 27 18 13 9 8 11 6 7 13 19 32 26 48 62 90 82 50 56 69 92 99 89 91 98 98 100 100 54 36 47 100 100 99 67 25 20 23 22 42 59 78 84 91
34 28 30 31 26 17 18 10 9 11 5 5 14 17 34 32 52 60 97 100 66 87 86 100 89 87 92 100 100 100 94 62 33 62 100 100 88 66 34 20 20 22 26 35 43 80 95
38 30 28 30 32 19 18 11 9 11 9 4 15 16 26 33 53 69 84 61 93 99 100 72 94 90 85 98 95 98 74 46 31 34 100 100 85 86 62 54 28 22 28 75 89 78 93
39 33 26 31 30 19 18 10 10 11 9 4 10 16 16 33 53 61 70 41 52 94 100 75 70 71 99 100 100 89 63 47 38 80 99 82 85 84 75 66 48 30 41 81 79 72 88
44 39 32 28 27 21 19 12 11 11 10 6 5 15 14 26 40 60 56 41 38 74 74 93 90 64 94 86 82 96 91 90 100 98 100 100 99 93 75 60 50 34 36 67 86 79 67
48 42 33 28 28 22 17 16 12 9 10 7 3 13 13 24 30 50 45 32 41 51 63 65 90 98 69 61 68 100 100 100 100 100 98 90 97 94 75 58 45 38 44 34 50 60 68
52 42 35 32 27 24 16 15 12 8 9 8 3 8 13 16 23 39 71 58 64 69 83 63 62 92 96 100 87 98 100 100 100 98 99 99 94 87 71 59 48 45 40 34 31 34 31
50 42 38 33 29 28 19 14 11 8 8 8 5 3 13 13 21 26 44 54 52 56 82 94 52 72 84 72 97 90 72 78 69 88 99 98 94 79 73 58 49 44 39 35 36 31 18
46 41 39 36 31 28 21 16 11 8 8 9 7 2 5 13 18 21 24 28 32 45 40 80 57 53 48 78 92 97 51 53 78 100 95 78 72 72 58 52 46 42 48 48 43 26 33
51 48 49 41 37 30 22 15 14 9 8 9 8 4 3 12 13 15 20 24 28 38 40 26 60 42 55 45 49 56 98 100 100 95 95 63 57 47 46 48 50 42 44 56 60 48 47
59 57 54 47 42 34 23 15 12 10 10 8 8 7 3 3 19 14 16 18 25 30 38 28 19 59 36 38 29 39 37 63 61 74 77 66 53 41 37 35 32 35 60 58 58 54 52
52 56 60 60 54 39 24 17 12 10 10 8 8 8 4 3 6 21 13 16 17 24 29 24 18 19 43 52 34 33 44 57 58 49 46 48 52 52 43 36 56 56 52 71 69 59 43
59 60 58 66 61 50 25 18 13 12 10 9 8 8 5 4 3 14 23 14 17 18 20 23 24 22 22 44 86 74 34 28 28 31 30 35 38 47 67 53 45 60 80 72 63 46 52
58 60 62 68 66 51 28 18 15 13 12 10 8 8 6 6 4 3 28 25 18 21 25 23 30 24 22 28 28 71 78 55 44 36 33 36 50 83 83 78 67 64 59 54 56 66 52
57 61 62 68 62 49 29 21 18 15 14 11 9 8 8 6 6 4 6 46 24 24 23 31 38 34 29 27 35 42 57 79 80 72 75 78 75 82 76 80 73 70 67 66 75 64 72
59 64 64 67 64 55 36 24 21 19 17 14 11 9 8 7 6 7 4 27 52 28 34 32 37 40 32 32 25 35 55 64 74 84 89 89 88 80 83 86 77 78 76 70 64 79 70
64 70 67 74 68 66 47 28 29 24 21 19 15 12 10 10 6 10 7 7 65 40 40 39 42 42 39 32 34 25 22 31 39 47 58 66 81 85 85 86 90 80 76 84 84 75 67
68 71 67 71 78 73 53 41 37 32 26 27 20 18 13 11 6 8 16 13 14 69 40 57 50 52 51 43 35 33 26 22 20 21 24 40 56 61 63 70 71 70 88 82 84 90 88
75 81 72 69 83 76 63 47 35 31 31 32 25 22 17 12 7 5 19 23 33 20 88 42 56 58 50 50 39 32 28 25 25 24 23 22 27 38 39 50 42 60 71 72 65 68 68
93 81 76 81 83 78 67 44 37 35 33 33 28 26 22 17 8 4 14 36 25 35 29 100 38 58 65 51 53 35 32 36 37 36 30 27 26 22 23 33 45 56 64 68 64 61 56
95 86 85 85 88 81 67 43 37 37 32 31 32 25 23 12 11 4 12 36 47 46 48 35 100 41 68 70 66 68 65 66 73 54 52 44 38 35 31 37 61 66 62 63 61 66 62
98 93 94 92 91 81 67 43 45 35 31 26 27 24 21 12 8 4 8 27 63 71 71 49 57 85 50 70 56 59 57 49 48 58 77 71 54 44 46 43 57 72 67 58 41 46 53
98 96 97 96 92 88 65 48 48 41 36 30 27 22 21 17 8 4 11 36 70 74 87 82 45 96 51 61 53 47 41 36 32 31 31 31 46 63 66 58 63 70 72 60 37 46 50
95 97 100 96 96 90 70 63 59 46 34 31 28 23 21 17 9 5 10 48 76 75 46 96 72 69 93 50 55 48 41 36 36 35 30 29 26 25 30 45 76 84 78 71 37 35 38
Wind_Speed
36 42 44 54 60 67 71 76 81 84 72 61 53 53 40 49 56 62 60 37 19 12 20 22 21 19 21 20 23 29 61 73 65 66 65 67 60 55 57 52 54 55 48 51 52 50 62
34 40 43 53 60 66 71 77 82 83 71 57 51 53 36 46 54 61 59 43 29 16 13 15 19 20 18 21 30 25 52 73 68 67 55 63 59 54 54 53 50 53 56 51 48 48 52
36 39 41 51 59 64 70 75 82 82 75 56 50 52 37 44 53 57 61 51 30 24 19 12 18 18 20 22 30 31 39 68 67 62 51 58 57 55 52 53 51 50 54 56 49 45 45
36 39 41 50 56 62 69 74 80 82 71 55 49 43 37 42 50 53 64 55 35 23 19 13 6 12 17 17 21 31 35 64 63 57 50 49 52 55 52 51 51 51 50 56 58 48 43
35 38 41 49 56 61 67 74 80 83 73 56 47 39 34 41 48 53 56 56 39 28 20 14 8 2 7 14 23 35 35 61 59 53 45 40 51 56 52 50 50 50 49 48 58 53 47
34 39 43 46 53 59 65 72 78 82 73 55 45 41 37 37 45 51 52 52 45 33 23 15 13 6 10 20 42 35 39 57 61 60 42 35 47 53 52 50 43 41 44 39 39 47 53
33 38 42 45 50 56 64 70 77 83 71 54 40 38 34 34 46 51 47 42 44 39 30 24 14 5 12 25 20 28 47 56 62 65 46 31 38 45 49 47 39 33 36 33 36 42 52
33 38 42 44 48 53 61 66 74 79 78 56 35 35 28 32 46 47 41 33 36 42 37 23 14 7 21 26 31 32 51 50 52 54 52 33 33 40 40 39 39 32 31 32 35 39 47
31 35 41 43 46 49 59 61 69 76 78 64 37 32 25 29 41 41 40 36 30 36 39 31 18 25 20 19 27 51 50 47 47 47 42 31 36 37 37 33 33 31 28 30 32 36 43
30 35 41 41 44 46 53 60 68 74 77 73 42 28 24 21 32 38 39 32 33 33 33 32 20 12 12 17 48 56 48 44 36 40 33 33 35 36 37 34 31 33 28 28 26 33 39
30 33 38 40 44 44 51 59 64 71 75 73 48 26 23 15 27 32 35 35 28 39 43 28 33 33 29 35 53 47 42 37 40 43 35 29 29 35 33 33 32 32 27 23 22 24 29
29 32 35 38 42 41 47 55 60 66 74 75 53 29 17 11 19 22 22 30 34 32 31 29 17 23 25 20 14 17 27 33 34 39 31 26 28 33 33 31 32 29 25 25 25 26 27
29 31 33 36 39 40 43 49 56 61 70 74 65 39 18 8 6 14 12 16 20 34 30 22 18 19 22 17 14 17 18 22 27 27 35 25 19 23 28 28 28 28 27 27 26 26 25
26 27 32 37 38 37 39 45 52 58 65 71 73 45 27 10 6 9 12 11 17 19 25 23 16 17 14 18 11 32 33 31 31 22 24 23 23 24 24 28 26 26 23 22 22 22 21
23 28 32 37 38 36 35 42 49 53 62 69 73 58 30 15 12 14 14 7 12 12 18 21 16 3 11 13 13 12 25 23 25 26 25 24 22 22 24 24 25 24 21 20 21 21 23
25 27 31 35 38 35 34 38 44 49 59 66 70 70 39 21 14 17 18 11 8 11 10 15 13 12 6 6 8 9 19 14 19 18 17 20 22 22 21 24 25 26 24 23 22 21 22
23 25 29 37 38 36 34 36 40 47 56 64 70 70 52 23 15 17 17 18 14 11 12 10 6 7 9 7 7 8 13 16 17 21 22 23 26 27 29 29 25 27 27 25 22 21 20
23 28 32 36 37 38 31 33 36 46 52 61 68 71 56 36 19 15 17 18 20 16 14 10 4 1 3 6 9 10 15 16 17 20 20 20 20 22 21 23 26 27 25 21 23 23 24
27 29 31 35 39 38 29 32 37 40 48 57 66 68 64 46 22 14 18 17 16 15 13 11 8 5 4 6 6 9 15 18 17 20 21 22 23 19 18 21 24 24 25 26 25 25 28
27 30 32 37 40 37 29 30 35 39 45 51 62 69 68 60 40 16 16 18 17 15 13 14 15 12 8 8 8 9 7 11 18 21 19 24 24 21 19 17 24 24 24 25 26 26 19
29 32 33 37 40 41 29 29 36 41 44 50 57 66 71 69 48 24 16 19 20 17 13 15 19 18 13 11 9 11 11 9 10 14 17 18 19 20 20 20 19 26 29 31 29 23 25
30 32 36 39 42 43 34 31 38 42 45 49 53 62 73 74 65 34 17 17 22 21 18 15 17 18 18 17 16 14 14 15 15 14 14 16 18 21 21 20 19 20 22 22 21 24 23
33 34 37 42 44 44 37 35 39 43 46 51 55 60 70 75 66 40 19 18 20 24 22 19 18 19 18 18 20 19 17 16 16 18 19 20 19 19 20 22 23 24 20 23 24 25 24
34 36 38 44 45 46 40 36 38 39 45 48 54 57 64 74 69 51 24 17 18 20 27 26 22 20 21 21 21 22 20 19 17 18 19 19 22 23 20 20 21 16 20 25 25 23 26
37 38 39 44 45 46 40 36 37 39 43 47 51 57 61 70 74 51 25 17 21 22 24 29 28 23 22 22 22 22 22 21 20 20 19 20 20 21 23 21 18 17 19 20 21 19 25
39 41 43 47 49 42 35 34 35 39 41 47 50 55 60 67 73 60 29 21 18 23 23 28 28 28 24 23 21 20 19 18 19 17 18 19 20 22 22 22 16 14 17 20 20 18 23
46 44 45 47 44 40 33 34 36 38 41 46 49 54 56 64 73 61 39 25 21 22 21 24 28 30 27 24 23 21 20 18 16 14 16 17 18 18 20 20 16 18 20 19 18 19 19
47 47 46 45 40 35 31 34 36 40 42 46 48 54 56 61 70 63 40 29 19 18 19 23 27 29 31 28 25 24 22 20 17 16 15 15 14 16 18 19 19 20 20 20 20 19 19
46 45 45 39 33 30 32 37 39 40 40 44 47 53 56 60 67 55 40 29 20 16 16 21 25 30 30 32 30 28 25 24 22 21 21 21 21 18 17 17 17 20 23 22 20 21 20
Wind_Direction
347 348 349 349 348 348 350 348 349 354 355 355 354 352 354 360 5 3 4 2 350 313 270 266 255 251 237 225 231 204 204 204 205 205 207 203 204 204 207 206 209 211 206 213 216 213 208
346 345 349 349 346 350 352 349 349 355 358 356 355 352 2 0 359 0 1 1 354 337 276 263 246 235 222 224 227 201 198 199 203 205 202 203 201 202 206 206 207 207 210 218 216 206 209
343 346 348 349 347 350 352 350 349 354 359 356 357 355 5 8 2 7 5 1 356 355 3 276 246 240 238 243 231 208 195 193 199 201 191 198 201 201 202 205 207 209 208 206 207 205 205
342 346 347 349 347 346 352 348 348 353 2 358 0 359 5 7 4 2 8 6 5 0 360 348 310 252 237 227 219 189 186 187 193 196 189 199 198 200 200 203 207 209 209 212 213 214 202
342 346 347 348 347 347 352 348 348 353 1 355 1 1 6 9 7 4 7 11 10 7 7 5 3 334 176 189 173 165 183 181 186 186 174 182 198 198 197 202 204 210 211 210 218 222 216
336 341 345 346 347 349 350 350 347 352 3 0 1 357 2 4 5 4 9 12 15 16 19 16 1 62 135 159 154 160 173 176 179 178 171 183 190 193 197 202 206 216 217 215 214 223 220
335 337 342 348 347 348 351 348 347 350 7 359 359 358 4 8 6 11 17 13 13 11 13 10 22 93 147 163 161 168 169 172 178 179 165 176 191 192 200 204 199 206 214 215 220 224 220
333 338 343 347 348 349 351 349 346 346 357 2 354 3 10 11 11 11 17 25 6 14 20 16 16 88 144 148 158 167 161 166 175 174 185 180 179 188 196 203 203 198 204 210 218 219 228
333 341 340 348 349 349 350 349 347 346 355 7 354 2 1 14 19 16 18 23 17 20 28 39 69 123 132 156 166 152 149 154 161 168 175 191 186 190 198 200 196 197 204 205 213 221 226
332 338 337 345 349 349 351 352 347 345 352 2 359 358 4 15 23 20 18 32 36 33 42 47 45 102 120 161 150 141 145 145 159 167 180 185 188 191 191 196 194 197 203 207 211 220 221
330 335 336 342 351 350 350 353 347 343 349 0 3 352 360 17 24 28 33 41 45 52 50 78 84 75 100 134 150 145 147 136 154 174 166 161 174 183 184 195 193 196 202 207 210 220 222
328 335 336 341 348 349 350 353 350 345 345 355 6 353 360 5 29 34 40 50 40 31 43 55 73 81 88 110 140 165 159 152 145 164 169 172 175 178 183 191 195 200 205 214 215 222 226
326 333 338 341 346 350 347 350 351 347 345 350 4 0 344 340 5 28 25 0 6 32 42 48 62 73 68 91 128 169 176 167 162 173 178 180 192 187 187 188 193 197 204 215 221 228 235
328 335 344 345 344 346 346 349 350 354 349 346 355 3 350 306 283 317 347 347 341 19 41 48 48 72 79 64 83 148 165 168 172 178 196 204 193 184 188 195 203 201 206 225 236 243 244
328 332 339 341 338 341 344 347 352 350 355 346 349 2 355 322 277 279 309 335 343 5 28 32 62 89 78 82 76 153 156 149 153 156 161 165 173 181 188 194 201 208 211 224 235 245 245
317 325 337 339 342 337 341 347 355 350 358 349 346 353 360 342 282 271 281 292 312 339 348 5 31 65 193 135 94 119 164 180 193 188 186 189 185 193 201 207 211 218 220 225 230 241 252
315 330 337 336 337 338 341 348 346 355 358 352 347 351 357 1 307 268 274 275 273 285 304 337 29 51 88 149 156 168 179 187 200 208 206 206 204 204 208 215 221 223 226 228 232 245 257
316 322 328 330 334 339 335 338 347 354 356 355 350 347 356 359 335 279 265 269 267 265 268 285 305 85 99 128 166 190 194 195 198 204 204 210 212 217 229 237 235 234 230 230 242 257 264
304 321 327 326 330 336 326 340 344 347 352 354 352 348 354 358 347 316 261 262 265 257 251 251 219 213 218 163 175 176 188 195 202 207 209 216 215 222 235 229 229 231 232 240 252 264 266
298 315 326 327 328 334 328 330 342 343 347 349 354 349 348 355 0 332 282 250 259 260 238 231 224 218 206 201 189 206 201 198 203 196 200 206 211 229 242 239 229 236 239 238 247 254 262
296 303 319 323 326 330 326 328 336 340 342 346 350 350 345 353 2 348 298 254 249 253 247 228 221 220 218 217 212 207 214 219 205 210 224 229 236 239 245 244 235 236 238 246 254 262 251
290 302 307 312 319 327 324 319 331 335 337 339 344 349 345 348 355 359 312 276 247 245 249 236 220 213 220 226 218 218 219 219 225 229 231 232 235 242 246 246 243 237 234 240 245 245 248
288 298 306 308 312 322 321 317 319 324 331 335 342 347 344 344 351 354 331 292 269 244 241 242 232 219 213 219 224 221 220 225 225 229 234 237 238 242 244 245 246 245 252 248 248 251 253
286 296 301 308 312 315 318 316 322 325 327 332 338 345 343 342 347 349 337 298 286 257 241 240 237 233 229 223 223 224 222 226 229 233 236 238 238 240 242 249 255 259 247 249 251 250 255
286 291 300 307 312 311 314 317 318 323 327 331 336 342 342 339 340 343 336 316 289 274 246 239 236 232 231 227 224 228 227 228 230 233 238 240 244 245 243 244 256 261 255 254 257 258 256
280 288 297 302 301 307 309 314 323 327 330 335 337 341 342 343 339 339 336 326 304 278 257 239 235 229 227 227 222 224 227 232 234 236 240 244 245 245 244 243 247 243 248 250 257 251 257
281 284 292 296 298 302 304 310 322 327 335 339 341 344 344 345 340 338 339 335 314 285 261 244 232 229 226 225 225 222 220 220 223 224 233 246 249 248 245 245 239 250 247 252 254 255 252
270 276 286 289 291 293 302 310 320 326 332 337 343 345 344 342 341 338 336 338 318 290 265 241 232 226 222 225 226 222 220 222 228 234 237 243 246 249 252 255 246 250 251 251 249 243 241
281 274 280 282 285 295 299 310 319 324 336 335 342 344 342 346 342 339 338 332 321 292 278 235 233 227 226 224 224 225 228 230 234 239 247 249 248 249 256 258 256 249 249 249 247 242 240